| time (UTC) | temp F | wind direction | speed knots | gust knots | rain 1hr in | rain 24hr in | rain mn in | humidity % | barometer mb |
| 20260505225804 | 56 | 358 | 5.2 | 6.1 | 0.00 | 0.00 | 0.00 | 94 | 1011.6 |
| 20260505224304 | 57 | 329 | 0.9 | 1.7 | 0.00 | 0.00 | 0.00 | 92 | 1012.0 |
| 20260505222804 | 57 | 302 | 3.5 | 4.3 | 0.00 | 0.00 | 0.00 | 92 | 1012.1 |
| 20260505221303 | 58 | 31 | 4.3 | 5.2 | 0.00 | 0.00 | 0.00 | 91 | 1012.5 |
| 20260505215803 | 57 | 156 | 3.5 | 3.5 | 0.00 | 0.00 | 1.07 | 91 | 1012.1 |
| 20260505214303 | 57 | 36 | 2.6 | 3.5 | 0.00 | 0.00 | 1.07 | 93 | 1012.5 |
| 20260505212803 | 57 | 71 | 1.7 | 1.7 | 0.00 | 0.00 | 1.07 | 93 | 1012.5 |
| 20260505211303 | 57 | 22 | 1.7 | 2.6 | 0.00 | 0.00 | 1.07 | 96 | 1012.4 |
| 20260505205802 | 57 | 346 | 1.7 | 1.7 | 0.00 | 0.00 | 1.07 | 96 | 1012.7 |
| 20260505204302 | 57 | 66 | 1.7 | 2.6 | 0.00 | 0.00 | 1.07 | 97 | 1012.8 |
| 20260505202802 | 58 | 98 | 1.7 | 2.6 | 0.00 | 0.00 | 1.07 | 96 | 1012.9 |
| 20260505201301 | 59 | 320 | 0.9 | 0.9 | 0.00 | 0.00 | 1.07 | 92 | 1013.2 |
| 20260505195801 | 59 | 227 | 0.9 | 0.9 | 0.00 | 0.00 | 1.07 | 93 | 1013.0 |
| 20260505194301 | 59 | 102 | 2.6 | 2.6 | 0.00 | 0.00 | 1.07 | 95 | 1013.0 |
| 20260505192800 | 59 | 173 | 0.9 | 1.7 | 0.00 | 0.00 | 1.07 | 95 | 1012.8 |
| 20260505191300 | 59 | 140 | 1.7 | 2.6 | 0.00 | 0.00 | 1.07 | 95 | 1012.6 |
| 20260505185800 | 59 | 258 | 0.9 | 0.9 | 0.00 | 0.00 | 1.07 | 95 | 1012.5 |
| 20260505184300 | 59 | 212 | 4.3 | 5.2 | 0.00 | 0.00 | 1.07 | 96 | 1012.5 |
| 20260505182759 | 59 | 228 | 3.5 | 4.3 | 0.00 | 0.00 | 1.07 | 95 | 1012.7 |
| 20260505181259 | 60 | 200 | 5.2 | 6.1 | 0.00 | 0.00 | 1.07 | 95 | 1012.6 |
| 20260505175759 | 60 | 215 | 4.3 | 5.2 | 0.00 | 0.00 | 1.07 | 95 | 1012.9 |
| 20260505174259 | 60 | 189 | 3.5 | 4.3 | 0.00 | 0.00 | 1.07 | 95 | 1012.4 |
| 20260505172759 | 61 | 205 | 3.5 | 5.2 | 0.00 | 0.00 | 1.07 | 96 | 1012.4 |
| 20260505171259 | 61 | 230 | 5.2 | 6.1 | 0.00 | 0.00 | 1.07 | 94 | 1012.3 |
| 20260505165759 | 62 | 225 | 5.2 | 7.0 | 0.00 | 0.00 | 1.07 | 91 | 1012.4 |
| 20260505164258 | 62 | 249 | 5.2 | 7.0 | 0.00 | 0.00 | 1.07 | 90 | 1012.2 |
| 20260505162758 | 62 | 229 | 4.3 | 5.2 | 0.00 | 0.00 | 1.07 | 90 | 1012.7 |
| 20260505161258 | 63 | 206 | 6.1 | 7.0 | 0.00 | 0.00 | 1.07 | 88 | 1012.7 |
| 20260505152757 | 61 | 224 | 5.2 | 7.0 | 0.00 | 0.00 | 1.07 | 93 | 1012.8 |
| 20260505151257 | 61 | 197 | 6.1 | 7.0 | 0.00 | 0.00 | 1.07 | 91 | 1012.8 |
| 20260505124256 | 64 | 229 | 3.5 | 4.3 | 0.00 | 0.00 | 1.07 | 87 | 1013.0 |
| 20260505122756 | 63 | 264 | 5.2 | 7.0 | 0.00 | 0.00 | 1.07 | 89 | 1013.0 |
| 20260505121255 | 62 | 198 | 7.8 | 7.8 | 0.00 | 0.00 | 1.07 | 89 | 1013.0 |
| 20260505115755 | 64 | 267 | 4.3 | 7.0 | 0.00 | 0.00 | 1.07 | 86 | 1012.9 |
| 20260505114255 | 64 | 184 | 6.1 | 7.8 | 0.00 | 0.00 | 1.07 | 88 | 1012.9 |
| 20260505112755 | 63 | 179 | 10.4 | 13.0 | 0.00 | 0.00 | 1.07 | 89 | 1012.9 |
| 20260505111254 | 63 | 194 | 9.6 | 13.0 | 0.00 | 0.00 | 1.07 | 89 | 1012.8 |
| 20260505101252 | 64 | 268 | 0.0 | 0.9 | 0.00 | 0.00 | 1.07 | 87 | 1012.6 |
| 20260505095752 | 61 | 264 | 0.9 | 1.7 | 0.00 | 0.00 | 1.07 | 99 | 1012.7 |
| 20260505094252 | 59 | 204 | 1.7 | 1.7 | 0.00 | 0.00 | 1.07 | 99 | 1012.1 |
| 20260505092751 | 57 | 350 | 2.6 | 3.5 | 0.00 | 0.00 | 1.07 | 99 | 1012.3 |
| 20260505091251 | 55 | 256 | 2.6 | 3.5 | 0.00 | 0.00 | 1.07 | 99 | 1012.2 |
| 20260505085751 | 55 | 49 | 2.6 | 3.5 | 0.00 | 0.00 | 1.07 | 99 | 1012.3 |
| 20260505084250 | 54 | 52 | 2.6 | 3.5 | 0.00 | 0.00 | 1.07 | 99 | 1012.1 |
| 20260505082750 | 54 | 38 | 1.7 | 2.6 | 0.00 | 0.00 | 1.07 | 99 | 1012.1 |
| 20260505081250 | 54 | 290 | 1.7 | 2.6 | 0.00 | 0.00 | 1.07 | 99 | 1011.8 |
| 20260505075750 | 53 | 68 | 7.0 | 10.4 | 0.00 | 0.00 | 1.07 | 99 | 1011.9 |
| 20260505074250 | 54 | 43 | 5.2 | 7.0 | 0.00 | 0.00 | 1.07 | 99 | 1012.1 |
| 20260505072750 | 53 | 343 | 1.7 | 1.7 | 0.00 | 0.00 | 1.07 | 99 | 1012.3 |
| 20260505071250 | 53 | 18 | 3.5 | 5.2 | 0.12 | 0.00 | 1.07 | 99 | 1012.0 |
| 20260505065750 | 53 | 316 | 3.5 | 4.3 | 0.19 | 0.00 | 1.05 | 99 | 1012.0 |
| 20260505064249 | 53 | 35 | 4.3 | 6.1 | 0.43 | 0.00 | 1.00 | 99 | 1012.2 |
| 20260505062749 | 54 | 268 | 0.0 | 0.0 | 0.54 | 0.00 | 0.90 | 99 | 1012.1 |
| 20260505061248 | 54 | 230 | 7.8 | 10.4 | 0.59 | 0.00 | 0.74 | 99 | 1012.0 |
| 20260505055748 | 54 | 10 | 3.5 | 4.3 | 0.19 | 0.00 | 0.61 | 99 | 1011.2 |
| 20260505054248 | 54 | 88 | 3.5 | 4.3 | 0.07 | 0.00 | 0.57 | 99 | 1010.9 |
| 20260505052747 | 53 | 28 | 6.1 | 7.0 | 0.12 | 0.00 | 0.55 | 99 | 1010.7 |
| 20260505051247 | 53 | 71 | 3.5 | 5.2 | 0.17 | 0.00 | 0.52 | 99 | 1010.8 |
| 20260505041245 | 53 | 21 | 2.6 | 3.5 | 0.12 | 0.00 | 0.32 | 99 | 1011.9 |
| 20260505035745 | 53 | 64 | 5.2 | 6.1 | 0.05 | 0.00 | 0.30 | 99 | 1011.7 |
| 20260505034245 | 53 | 88 | 3.5 | 4.3 | 0.26 | 0.00 | 0.27 | 99 | 1011.8 |
| 20260505032744 | 53 | 45 | 4.3 | 5.2 | 0.00 | 0.00 | 0.23 | 99 | 1012.2 |
| 20260505031244 | 53 | 12 | 5.2 | 7.0 | 0.00 | 0.00 | 0.23 | 99 | 1012.4 |
| 20260505025743 | 53 | 313 | 1.7 | 2.6 | 0.12 | 0.00 | 0.22 | 99 | 1012.5 |
| 20260505024243 | 53 | 74 | 3.5 | 4.3 | 0.17 | 0.00 | 0.19 | 98 | 1012.9 |
| 20260505022743 | 54 | 258 | 0.0 | 0.9 | 0.31 | 0.00 | 0.15 | 98 | 1013.1 |
| 20260505021242 | 54 | 328 | 1.7 | 2.6 | 0.12 | 0.00 | 0.09 | 96 | 1013.4 |
| 20260505015742 | 54 | 332 | 2.6 | 2.6 | 0.05 | 0.00 | 0.06 | 94 | 1013.3 |
| 20260505014242 | 55 | 41 | 2.6 | 3.5 | 0.07 | 0.00 | 0.05 | 92 | 1013.6 |
| 20260505012741 | 55 | 31 | 1.7 | 1.7 | 0.05 | 0.00 | 0.04 | 89 | 1013.9 |
| 20260505011241 | 57 | 291 | 0.9 | 0.9 | 0.05 | 0.00 | 0.02 | 85 | 1014.2 |
| 20260505005740 | 57 | 335 | 0.9 | 0.9 | 0.07 | 0.00 | 0.01 | 83 | 1014.4 |
| 20260505004240 | 57 | 346 | 0.9 | 0.9 | 0.00 | 0.00 | 0.00 | 84 | 1014.6 |
| 20260505002740 | 58 | 249 | 0.9 | 0.9 | 0.00 | 0.00 | 0.00 | 80 | 1014.9 |
| 20260505001239 | 59 | 245 | 0.9 | 0.9 | 0.00 | 0.00 | 0.00 | 78 | 1015.1 |
| 20260504235739 | 59 | 293 | 0.9 | 1.7 | 0.00 | 0.00 | 0.00 | 76 | 1015.1 |
| 20260504234238 | 59 | 226 | 0.9 | 0.9 | 0.00 | 0.00 | 0.00 | 76 | 1015.6 |
| 20260504232738 | 59 | 244 | 0.0 | 0.9 | 0.00 | 0.00 | 0.00 | 76 | 1015.3 |
| 20260504231238 | 59 | 250 | 0.9 | 1.7 | 0.00 | 0.00 | 0.00 | 76 | 1015.8 |